Location: DARK SKY Beskydy - Park tmavé oblohy, www.darkskybeskydy.cz
(49.4926°N, 18.5016°E)
Time: 18:09:41
(UTC+02:00)

PCSat - Pass Details

Date: 05 August 2024
Orbit: 781 x 793 km, 67.1° (Epoch: 08 September)

Event Time Altitude Azimuth Distance (km) Brightness Sun altitude
Rises 21:56:12 0° 282° (WNW) 3,287 13.8 -13.3°
Reaches altitude 10° 21:59:41 10° 305° (NW) 2,362 13.4 -13.7°
Maximum altitude 22:02:50 15° 341° (NNW) 2,014 12.7 -14.0°
Drops below altitude 10° 22:05:59 10° 17° (NNE) 2,368 12.5 -14.4°
Sets 22:09:29 0° 40° (NE) 3,301 12.9 -14.7°
